Regional Weather Roundup
Issued by NWS

Home | Current Version | Previous Version | Graphics & Text | Print | Product List | Glossary On
Versions: 1 2 3 4 5 6 7 8 9 10 11 12 13 14 15 16 17 18 19 20 21 22 23 24 25 26 27 28 29 30 31 32 33 34 35 36 37 38 39 40 41 42 43 44 45 46 47 48 49 50
000
ASUS43 KBIS 222302
RWRND

NORTH DAKOTA REGIONAL WEATHER ROUNDUP
NATIONAL WEATHER SERVICE BISMARCK ND
600 PM CDT WED MAR 22 2017

NOTE: "FAIR" INDICATES FEW OR NO CLOUDS BELOW 12,000 FEET WITH NO
SIGNIFICANT WEATHER AND/OR OBSTRUCTIONS TO VISIBILITY.


NDZ001>003-009>011-017-230000-
NORTHWEST NORTH DAKOTA

CITY           SKY/WX    TMP DP  RH WIND       PRES   REMARKS
WILLISTON      FAIR      51  32  48 SE8       29.78F
MINOT          FAIR      41  30  65 SE17      29.86F
MINOT AFB      CLOUDY    38  31  74 SE13      29.86F
$$

NDZ018>021-031>035-040>046-230000-
SOUTHWEST NORTH DAKOTA

CITY           SKY/WX    TMP DP  RH WIND       PRES   REMARKS
BISMARCK       FAIR      48  31  51 S26       29.89F
DICKINSON      FAIR      54  35  48 S9        29.77R
GARRISON         N/A     41  32  70 SE14      29.84F
HETTINGER ARPT CLOUDY    57  37  47 S10       29.79F
$$

NDZ004>008-012>016-024-026-027-054-230000-
NORTHEAST NORTH DAKOTA

CITY           SKY/WX    TMP DP  RH WIND       PRES   REMARKS
GRAND FORKS    FLURRIES  30  19  63 SE24G30   30.15F WCI  16
GRND FRKS AFB  CLOUDY    29  22  74 SE17G23   30.14F WCI  17
DEVILS LAKE    FAIR      30  23  75 S24G30    30.04F WCI  16
$$

NDZ022-023-025-028>030-036>039-047>053-230000-
SOUTHEAST NORTH DAKOTA

CITY           SKY/WX    TMP DP  RH WIND       PRES   REMARKS
FARGO          CLOUDY    34  19  54 SE24G37   30.16F
JAMESTOWN      CLOUDY    33  25  72 SE21G32   30.04F
$$




USA.gov is the U.S. government's official web portal to all federal, state and local government web resources and services.